Port Aransas, TX

1:16 AM CDT on April 24, 2017 (GMT -0500)
Port Aransas

Weather History for KRAS - September, 2012

Change the Weather History Date:

Tuesday, September 25, 2012

  Actual Average (KNGP) Record (KNGP)
Temperature  
Mean Temperature 83 °F -  
Max Temperature 86 °F 85 °F 93 °F (2005)
Min Temperature 80 °F 69 °F 61 °F (2000)
Cooling Degree Days 18    
Growing Degree Days 33 (Base 50)    
Moisture  
Dew Point 71 °F    
Average Humidity 69    
Maximum Humidity 74    
Minimum Humidity 58    
Precipitation  
Precipitation 0.00 in - - ()
Sea Level Pressure  
Sea Level Pressure 30.00 in    
Wind  
Wind Speed 14 mph (SSE)    
Max Wind Speed 17 mph    
Max Gust Speed 24 mph    
Visibility 10 miles    
Events      
Averages and records for this station are not official NWS values.
T = Trace of Precipitation, MM = Missing Value Source: NWS Daily Summary

Daily Weather History Graph

Daily Weather History Graph

Search for Another Location

Airport or City:

Trip Planner

Search our weather history database for the weather conditions in past years. The results will help you decide how hot, cold, wet, or windy it might be!

Date:

Astronomy

Sep. 25, 2012 Rise Set
Actual Time 7:18 AM CDT 7:20 PM CDT
Civil Twilight 6:55 AM CDT 7:44 PM CDT
Nautical Twilight 6:27 AM CDT 8:11 PM CDT
Astronomical Twilight 6:00 AM CDT 8:38 PM CDT
Moon 4:28 PM CDT (9/25) 3:02 AM CDT (9/25)
Length of Visible Light 12h 48m
Length of Day
12h 02m
Waxing Gibbous, 80% of the Moon is Illuminated
Sep 25
Waxing Gibbous
Sep 29
Full
Oct 8
Last Quarter
Oct 15
New
Oct 21
First Quarter

Hourly Weather History & Observations

Time (CDT) Temp. Heat Index Dew Point Humidity Pressure Visibility Wind Dir Wind Speed Gust Speed Precip Events Conditions
12:15 AM 80.6 °F 84.6 °F 71.6 °F 74% 30.06 in 10.0 mi SE 13.8 mph 24.2 mph N/A   Scattered Clouds
12:35 AM 80.6 °F 84.6 °F 71.6 °F 74% 30.06 in 10.0 mi SE 12.7 mph - N/A   Scattered Clouds
12:55 AM 80.6 °F 84.6 °F 71.6 °F 74% 30.05 in 10.0 mi SE 17.3 mph 21.9 mph N/A   Scattered Clouds
1:15 AM 80.6 °F 84.6 °F 71.6 °F 74% 30.05 in 10.0 mi SSE 13.8 mph 21.9 mph N/A   Scattered Clouds
1:35 AM 80.6 °F 83.9 °F 69.8 °F 70% 30.05 in 10.0 mi SSE 12.7 mph 20.7 mph N/A   Clear
1:55 AM 80.6 °F 84.6 °F 71.6 °F 74% 30.05 in 10.0 mi SSE 13.8 mph 18.4 mph N/A   Scattered Clouds
2:15 AM 80.6 °F 84.6 °F 71.6 °F 74% 30.04 in 10.0 mi SSE 12.7 mph 19.6 mph N/A   Scattered Clouds
2:35 AM 80.6 °F 84.6 °F 71.6 °F 74% 30.04 in 10.0 mi SSE 16.1 mph 20.7 mph N/A   Scattered Clouds
2:55 AM 80.6 °F 84.6 °F 71.6 °F 74% 30.04 in 10.0 mi SSE 15.0 mph 20.7 mph N/A   Scattered Clouds
3:15 AM 80.6 °F 84.6 °F 71.6 °F 74% 30.03 in 10.0 mi SSE 15.0 mph 21.9 mph N/A   Scattered Clouds
3:35 AM 80.6 °F 83.9 °F 69.8 °F 70% 30.03 in 10.0 mi SSE 15.0 mph 21.9 mph N/A   Scattered Clouds
3:55 AM 80.6 °F 83.9 °F 69.8 °F 70% 30.02 in 10.0 mi SSE 16.1 mph 20.7 mph N/A   Scattered Clouds
4:15 AM 80.6 °F 83.9 °F 69.8 °F 70% 30.02 in 10.0 mi South 13.8 mph 21.9 mph N/A   Scattered Clouds
4:35 AM 80.6 °F 83.9 °F 69.8 °F 70% 30.02 in 10.0 mi SSE 16.1 mph 19.6 mph N/A   Clear
4:55 AM 80.6 °F 83.9 °F 69.8 °F 70% 30.01 in 10.0 mi SSE 12.7 mph 18.4 mph N/A   Clear
5:15 AM 80.6 °F 84.6 °F 71.6 °F 74% 30.01 in 10.0 mi SSE 13.8 mph - N/A   Scattered Clouds
5:35 AM 80.6 °F 83.9 °F 69.8 °F 70% 30.00 in 10.0 mi SSE 13.8 mph 20.7 mph N/A   Scattered Clouds
5:55 AM 80.6 °F 83.9 °F 69.8 °F 70% 30.01 in 10.0 mi SSE 13.8 mph 18.4 mph N/A   Clear
6:15 AM 80.6 °F 83.9 °F 69.8 °F 70% 30.01 in 10.0 mi SSE 12.7 mph - N/A   Clear
6:35 AM 80.6 °F 83.9 °F 69.8 °F 70% 30.01 in 10.0 mi SSE 12.7 mph 18.4 mph N/A   Clear
6:55 AM 80.6 °F 83.9 °F 69.8 °F 70% 30.01 in 10.0 mi SSE 11.5 mph 18.4 mph N/A   Clear
7:15 AM 80.6 °F 83.9 °F 69.8 °F 70% 30.01 in 10.0 mi SSE 12.7 mph 19.6 mph N/A   Scattered Clouds
7:35 AM 80.6 °F 83.9 °F 69.8 °F 70% 30.01 in 10.0 mi SSE 10.4 mph - N/A   Scattered Clouds
7:55 AM 80.6 °F 83.9 °F 69.8 °F 70% 30.01 in 10.0 mi SSE 10.4 mph 17.3 mph N/A   Scattered Clouds
8:15 AM 80.6 °F 83.9 °F 69.8 °F 70% 30.02 in 10.0 mi SSE 9.2 mph - N/A   Scattered Clouds
8:35 AM 80.6 °F 83.9 °F 69.8 °F 70% 30.02 in 10.0 mi SSE 12.7 mph - N/A   Scattered Clouds
8:55 AM 82.4 °F 87.2 °F 71.6 °F 70% 30.03 in 10.0 mi SSE 11.5 mph 17.3 mph N/A   Scattered Clouds
9:15 AM 82.4 °F 87.2 °F 71.6 °F 70% 30.03 in 10.0 mi SSE 10.4 mph - N/A   Scattered Clouds
9:35 AM 82.4 °F 87.2 °F 71.6 °F 70% 30.04 in 10.0 mi SSE 12.7 mph - N/A   Scattered Clouds
9:55 AM 82.4 °F 87.2 °F 71.6 °F 70% 30.05 in 10.0 mi SSE 12.7 mph 17.3 mph N/A   Scattered Clouds
10:15 AM 86.0 °F 91.8 °F 71.6 °F 62% 30.05 in 10.0 mi SSE 9.2 mph 17.3 mph N/A   Scattered Clouds
11:35 AM 86.0 °F 91.8 °F 71.6 °F 62% 30.05 in 10.0 mi South 11.5 mph 16.1 mph N/A   Unknown
11:55 AM 86.0 °F 91.8 °F 71.6 °F 62% 30.05 in 10.0 mi South 12.7 mph - N/A   Scattered Clouds
12:15 PM 86.0 °F 91.8 °F 71.6 °F 62% 30.04 in 10.0 mi South 11.5 mph 16.1 mph N/A   Scattered Clouds
12:35 PM 86.0 °F 91.8 °F 71.6 °F 62% 30.04 in 10.0 mi SSE 12.7 mph - N/A   Scattered Clouds
12:55 PM 86.0 °F 91.8 °F 71.6 °F 62% 30.03 in 10.0 mi SSE 12.7 mph - N/A   Mostly Cloudy
1:15 PM 86.0 °F 91.8 °F 71.6 °F 62% 30.02 in 10.0 mi SSE 11.5 mph - N/A   Scattered Clouds
2:15 PM 86.0 °F 91.8 °F 71.6 °F 62% 30.00 in 10.0 mi SSE 8.1 mph - N/A   Scattered Clouds
2:35 PM 86.0 °F 91.8 °F 71.6 °F 62% 29.99 in 10.0 mi SE 11.5 mph 16.1 mph N/A   Scattered Clouds
2:55 PM 86.0 °F 93.4 °F 73.4 °F 66% 29.98 in 10.0 mi SE 11.5 mph 16.1 mph N/A   Mostly Cloudy
3:15 PM 86.0 °F 91.8 °F 71.6 °F 62% 29.97 in 10.0 mi SSE 12.7 mph 18.4 mph N/A   Scattered Clouds
3:35 PM 86.0 °F 91.8 °F 71.6 °F 62% 29.97 in 10.0 mi SSE 16.1 mph - N/A   Clear
3:55 PM 86.0 °F 91.8 °F 71.6 °F 62% 29.96 in 10.0 mi SSE 12.7 mph 18.4 mph N/A   Clear
4:15 PM 86.0 °F 91.8 °F 71.6 °F 62% 29.96 in 10.0 mi SSE 13.8 mph 19.6 mph N/A   Clear
4:35 PM 86.0 °F 90.4 °F 69.8 °F 58% 29.96 in 10.0 mi SSE 13.8 mph 19.6 mph N/A   Clear
4:55 PM 86.0 °F 91.8 °F 71.6 °F 62% 29.95 in 10.0 mi SSE 13.8 mph 19.6 mph N/A   Scattered Clouds
5:15 PM 86.0 °F 91.8 °F 71.6 °F 62% 29.95 in 10.0 mi SE 16.1 mph - N/A   Scattered Clouds
5:35 PM 84.2 °F 88.4 °F 69.8 °F 62% 29.95 in 10.0 mi SE 13.8 mph 20.7 mph N/A   Clear
5:55 PM 84.2 °F 89.6 °F 71.6 °F 66% 29.95 in 10.0 mi SE 15.0 mph 21.9 mph N/A   Clear
6:15 PM 82.4 °F 86.3 °F 69.8 °F 66% 29.95 in 10.0 mi SSE 16.1 mph 21.9 mph N/A   Clear
6:35 PM 82.4 °F 86.3 °F 69.8 °F 66% 29.96 in 10.0 mi SSE 16.1 mph 21.9 mph N/A   Clear
6:55 PM 82.4 °F 86.3 °F 69.8 °F 66% 29.95 in 10.0 mi SE 13.8 mph 23.0 mph N/A   Clear
7:15 PM 80.6 °F 84.6 °F 71.6 °F 74% 29.95 in 10.0 mi SSE 13.8 mph 21.9 mph N/A   Scattered Clouds
7:55 PM 80.6 °F 84.6 °F 71.6 °F 74% 29.96 in 10.0 mi SE 13.8 mph 21.9 mph N/A   Scattered Clouds
8:15 PM 80.6 °F 84.6 °F 71.6 °F 74% 29.96 in 10.0 mi SE 11.5 mph 19.6 mph N/A   Clear
8:35 PM 80.6 °F 83.9 °F 69.8 °F 70% 29.96 in 10.0 mi SSE 15.0 mph 20.7 mph N/A   Scattered Clouds
8:55 PM 80.6 °F 84.6 °F 71.6 °F 74% 29.97 in 10.0 mi SE 15.0 mph 23.0 mph N/A   Scattered Clouds
9:35 PM 80.6 °F 84.6 °F 71.6 °F 74% 29.98 in 10.0 mi SE 15.0 mph 20.7 mph N/A   Scattered Clouds
10:15 PM 80.6 °F 83.9 °F 69.8 °F 70% 29.98 in 10.0 mi SE 13.8 mph 20.7 mph N/A   Clear
10:55 PM 80.6 °F 84.6 °F 71.6 °F 74% 29.98 in 10.0 mi SSE 15.0 mph 20.7 mph N/A   Scattered Clouds
11:35 PM 80.6 °F 84.6 °F 71.6 °F 74% 29.98 in 10.0 mi SE 15.0 mph 20.7 mph N/A   Scattered Clouds
11:55 PM 80.6 °F 84.6 °F 71.6 °F 74% 29.98 in 10.0 mi SSE 17.3 mph 23.0 mph N/A   Scattered Clouds